Miscellaneous Local Product
Issued by NWS North Platte, NE

Home | Current Version | Previous Version | Text Only | Print | Product List | Glossary On
Versions: 1 2 3 4 5 6 7 8 9 10 11 12 13 14 15 16 17 18 19 20 21 22 23 24 25 26 27 28 29 30 31 32 33 34 35 36 37 38 39 40 41 42 43 44 45 46 47 48 49 50
000
AXUS43 KLBF 290910
MISLBF


WESTERN AND NORTH CENTRAL NEBRASKA HOURLY WEATHER ROUNDUP
NATIONAL WEATHER SERVICE NORTH PLATTE NE
400 AM CDT FRI AUG 29 2014

***STATIONS NOT REPORTING VARIABLES SUCH AS SKY/WEATHER OR
PRESSURE ARE PROVIDED BY THE NEBRASKA DEPARTMENT OF
ROADS...RAWS...AND APRS NETWORKS...AND ARE NOT UNDER
NATIONAL WEATHER SERVICE QUALITY CONTROL***

...OBSERVATIONS IN AND NEAR THE EASTERN PANHANDLE OF NEBRASKA...

CITY           SKY/WX    TMP DP  RH WIND       PRES   REMARKS
PINE RIDGE     CLEAR     49  48  97 CALM      29.92S
CHADRON        CLEAR     54  52  93 W5        29.92S
ALLIANCE       CLEAR     50  48  93 W6        29.95F
SIDNEY         CLEAR     55  49  80 NW12      30.01F
WHITECLAY        N/A     49  47  93 SE5         N/A
RUSHVILLE        N/A     51  49  93 S9          N/A
GORDON           N/A     57  50  79 W9          N/A
CRESCENT LAKE    N/A     55  49  82 W6          N/A
LISCO            N/A     54  50  87 CALM        N/A
BIG SPRINGS      N/A     55  53  93 CALM        N/A
$$

...OBSERVATIONS IN NORTH CENTRAL NEBRASKA...

CITY           SKY/WX    TMP DP  RH WIND       PRES   REMARKS
VALENTINE      PTCLDY    60  59  96 W3        29.87S
THEDFORD       PTCLDY    56  55  95 CALM      29.91S
AINSWORTH      PTCLDY    60  60  97 W7        29.87S
O`NEILL        MOCLDY    64  63  97 W3        29.83R
ORD            MOCLDY    63  62  97 NW8       29.83S
BROKEN BOW     PTCLDY    62  59  90 CALM      29.87S
SPRINGVIEW       N/A     62  60  95 CALM        N/A
ROSE             N/A     63  63  99 W3          N/A
NEWPORT          N/A     63  63  99 W7          N/A
SARGENT          N/A     61  60  95 CALM        N/A
COMSTOCK         N/A     68  67  96 NW3         N/A
CHAMBERS         N/A     62  61  96 CALM        N/A
EWING            N/A     64  63  97 CALM        N/A
$$

...OBSERVATIONS IN SOUTHWEST NEBRASKA AND FAR NORTHEAST COLORADO...

CITY           SKY/WX    TMP DP  RH WIND       PRES   REMARKS
WRAY             N/A     56  56 100 W3        29.98S
HOLYOKE        FAIR      61  54  77 W8        29.97S
IMPERIAL       CLEAR     57  53  86 NW8       29.95R
OGALLALA       CLEAR     51  50  97 W5        29.94S
NORTH PLATTE   CLEAR     57  54  89 CALM      29.91S
MCCOOK         PTCLDY    59  56  89 W7        29.90F
LEXINGTON      PTCLDY    62  60  94 NW6       29.88R
PAXTON           N/A     58  56  92 CALM        N/A
SUTHERLAND       N/A     53  51  92 W5          N/A
BRADY            N/A     59  56  88 CALM        N/A
GOTHENBURG       N/A     63  57  82 CALM        N/A
CALLAWAY         N/A     60  58  95 NW7         N/A
$$

...SOME WEATHER OBSERVATIONS FROM AROUND THE REGION...

CITY           SKY/WX    TMP DP  RH WIND       PRES   REMARKS
DENVER         CLEAR     56  46  69 SW13      30.09S
LARAMIE        MOCLDY    45  42  89 SE7       30.20S
CHEYENNE       CLEAR     53  42  66 NW9       30.12S
SCOTTSBLUFF    CLEAR     50  49  96 N5        29.98F
RAPID CITY     CLEAR     59  52  77 W9        29.89S
PIERRE         FOG       65  65 100 NW7       29.80S VSB 1/4
WINNER         CLOUDY    65  64  97 W5        29.83S
SIOUX FALLS    CLOUDY    72  70  93 SW5       29.78R
OMAHA          CLOUDY    72  68  87 SE7       29.80F
GRAND ISLAND   CLOUDY    67  64  90 NW5       29.82S
KANSAS CITY    PTCLDY    72  64  76 SE10      29.85F
WICHITA        CLOUDY    69  64  84 SE5       29.84F
HAYS           CLOUDY    64  55  72 SW8       29.89R
LIBERAL        PTCLDY    64  55  72 W7        29.99F
GOODLAND       CLEAR     56  54  93 W9        29.98S
$$



USA.gov is the U.S. government's official web portal to all federal, state and local government web resources and services.